Location: Владивосток
(43.1151°N, 131.8856°E)
Time: 23:24:11
(UTC+10:00)

Envisat - Pass Details

Date: 20 January 2022
Orbit: 764 x 765 km, 98.2° (Epoch: 17 May)

Event Time Altitude Azimuth Distance (km) Brightness Sun altitude
Rises 08:00:52 0° 352° (N) 3,240 5.9 -7.1°
Reaches altitude 10° 08:05:37 10° 311° (NW) 2,307 4.9 -6.3°
Maximum altitude 08:06:17 10° 304° (WNW) 2,289 4.8 -6.2°
Drops below altitude 10° 08:06:55 10° 296° (WNW) 2,304 4.8 -6.1°
Sets 08:11:41 0° 256° (WSW) 3,225 5.7 -5.3°
